Content
SEND FEEDBACK

Daily
Averages
Monthly
Summary
United States of America

GLEN LYN, VIRGINIA


Home > North America > United States > Virginia
Elevation: 152 feet     Latitude: 37 22N     Longitude: 080 52W

WEATHER
 
SELECT A DAY
Number of Records: 210,565;   Date Range: 1/1/95 - 9/29/14
 
SHARE

PRINT THIS DATA

[ ← Previous Day ]
WEATHER ALMANAC - FEBRUARY 13, 2013
[ Next Day → ]
[ °C ]   °F
Weather ElementAverageHighLow
Temperature36.9 °F42.8 °F (2:37 pm)32 °F (9:09 pm)
Dewpoint30.2 °F37.9 °F (2:52 pm)18 °F (1:52 am)
Humidity78.3 %88 % (9:52 pm)40 % (1:52 am)
Barometer29.72 in29.86 in (11:52 pm)29.56 in (3:14 pm)
Wind Speed9.7 mph17.3 mph (5:03 pm)
Wind Gust29.9 mph (4:52 pm)
Weather ElementAverage
Visibility7.2 mi
Wind DirectionSW (222.6 °)

Weather ElementTotal
Precipitation0.16 in
Heating Degree Days27.6 (Base 65)
Averaged from 42 records on February 13, 2013
WEATHER CONDITIONS BREAKOUT
WIND DIRECTION BREAKOUT
WEATHER BY HOUR - FEBRUARY 13, 2013
[ °C ]   °F
Local TimeTemperatureDewpointHumidityBarometerVisibilityWind DirectionWind SpeedGust SpeedPrecipitationEventsConditions
1:52 AM41.0 °F18.0 °F40 %29.83 in10.0 miEast (100°)4.6 mphOvercast
2:52 AM41.0 °F19.0 °F41 %29.82 in10.0 miCalmOvercast
3:52 AM41.0 °F21.0 °F45 %29.78 in10.0 miESE (110°)3.5 mphOvercast
4:52 AM39.9 °F24.1 °F53 %29.76 in10.0 miCalmOvercast
5:52 AM39.9 °F27.0 °F60 %29.74 in10.0 miCalmOvercast
6:52 AM39.9 °F26.1 °F58 %29.72 in10.0 miEast (80°)6.9 mphOvercast
7:52 AM39.9 °F30.0 °F68 %29.70 in10.0 miEast (100°)8.1 mph0.00 inRainLight Rain
8:52 AM39.9 °F33.1 °F77 %29.68 in10.0 miVariable5.8 mph0.00 inOvercast
9:09 AM39.2 °F33.8 °F81 %29.68 in10.0 miSE (140°)9.2 mph18.4 mphOvercast
9:52 AM39.9 °F34.0 °F79 %29.65 in10.0 miSE (140°)11.5 mph0.00 inOvercast
10:52 AM41.0 °F35.1 °F79 %29.64 in10.0 miSSE (160°)16.1 mph26.5 mph0.03 inOvercast
11:06 AM41.0 °F35.6 °F81 %29.63 in7.0 miSSE (160°)12.7 mph25.3 mph0.01 inRainLight Rain
11:52 AM41.0 °F36.0 °F82 %29.62 in10.0 miSSE (160°)13.8 mph26.5 mph0.02 inOvercast
12:52 PM41.0 °F36.0 °F82 %29.59 in8.0 miSouth (170°)11.5 mph21.9 mph0.01 inRainLight Rain
1:52 PM42.1 °F37.0 °F82 %29.58 in10.0 miSW (230°)5.8 mph0.03 inRainLight Rain
2:37 PM42.8 °F37.4 °F81 %29.57 in10.0 miSouth (180°)6.9 mph0.01 inRainLight Rain
2:52 PM42.1 °F37.9 °F85 %29.57 in10.0 miSSW (200°)4.6 mph0.01 inRainLight Rain
3:14 PM42.8 °F37.4 °F81 %29.56 in10.0 miWSW (240°)8.1 mph0.00 inOvercast
3:25 PM42.8 °F37.4 °F81 %29.57 in7.0 miWest (270°)9.2 mph0.01 inRainLight Rain
3:52 PM41.0 °F36.0 °F82 %29.60 in10.0 miWest (280°)13.8 mph19.6 mph0.03 inRainLight Rain
4:52 PM36.0 °F30.9 °F82 %29.67 in5.0 miWNW (300°)16.1 mph29.9 mph0.00 inSnowLight Snow
5:03 PM35.6 °F30.2 °F81 %29.66 in2.0 miWNW (300°)17.3 mph26.5 mph0.00 inSnowLight Snow
5:14 PM33.8 °F30.2 °F87 %29.67 in7.0 miWNW (300°)12.7 mph21.9 mph0.00 inSnowLight Snow
5:38 PM33.8 °F28.4 °F81 %29.69 in1.8 miNW (310°)15.0 mph24.2 mph0.00 inSnowLight Snow
5:45 PM33.8 °F30.2 °F87 %29.69 in0.8 miNW (310°)12.7 mph24.2 mph0.00 inSnowLight Snow
5:49 PM33.8 °F30.2 °F87 %29.69 in1.2 miWNW (300°)13.8 mph24.2 mph0.00 inSnowLight Snow
5:52 PM34.0 °F30.0 °F85 %29.72 in1.8 miWNW (300°)11.5 mph24.2 mph0.00 inSnowLight Snow
5:54 PM33.8 °F30.2 °F87 %29.70 in3.0 miNW (310°)12.7 mph24.2 mph0.00 inSnowLight Snow
6:52 PM33.1 °F28.0 °F82 %29.75 in10.0 miWNW (300°)12.7 mph19.6 mph0.00 inOvercast
7:14 PM33.8 °F28.4 °F81 %29.75 in10.0 miWNW (300°)9.2 mph17.3 mphOvercast
7:26 PM33.8 °F28.4 °F81 %29.76 in10.0 miWNW (300°)13.8 mph17.3 mphOvercast
7:52 PM33.1 °F28.0 °F82 %29.80 in9.0 miNW (310°)12.7 mph25.3 mph0.00 inSnowLight Snow
8:52 PM33.1 °F28.9 °F85 %29.81 in10.0 miWNW (300°)9.2 mph17.3 mph0.00 inOvercast
9:09 PM32.0 °F28.4 °F87 %29.79 in5.0 miWest (280°)8.1 mph16.1 mphOvercast
9:52 PM32.0 °F28.9 °F88 %29.83 in10.0 miWNW (300°)10.4 mphOvercast
10:09 PM32.0 °F28.4 °F87 %29.81 in9.0 miWest (280°)8.1 mph16.1 mphOvercast
10:52 PM32.0 °F28.0 °F85 %29.85 in7.0 miWNW (300°)9.2 mph16.1 mphOvercast
11:04 PM32.0 °F28.4 °F87 %29.83 in5.0 miWNW (290°)12.7 mph19.6 mphOvercast
11:36 PM32.0 °F28.4 °F87 %29.84 in1.8 miNW (320°)8.1 mphOvercast
11:42 PM32.0 °F28.4 °F87 %29.84 in0.8 miWNW (300°)8.1 mph16.1 mphOvercast
11:49 PM32.0 °F28.4 °F87 %29.84 in0.5 miNW (310°)10.4 mph17.3 mphFogFog
11:52 PM32.0 °F28.9 °F88 %29.86 in0.5 miNW (310°)10.4 mph17.3 mphFogFog
Hourly data recorded from KBLF, located miles away from Glen Lyn, Virginia







STORIES FROM OUR PARTNERS